| time (UTC) | temp F | wind direction | speed knots | gust knots | rain 1hr in | rain 24hr in | rain mn in | humidity % | barometer mb |
| 20260509212738 | 88 | 76 | 1.7 | 10.4 | 0.00 | 0.00 | 0.00 | 68 | 977.5 |
| 20260509212236 | 88 | 83 | 1.7 | 10.4 | 0.00 | 0.00 | 0.00 | 69 | 978.7 |
| 20260509211736 | 88 | 114 | 0.0 | 10.4 | 0.00 | 0.00 | 0.00 | 70 | 979.1 |
| 20260509210203 | 87 | 37 | 0.9 | 10.4 | 0.00 | 0.00 | 0.00 | 69 | 979.0 |
| 20260509205146 | 87 | 36 | 2.6 | 10.4 | 0.00 | 0.00 | 0.00 | 68 | 978.5 |
| 20260509204129 | 88 | 41 | 3.5 | 10.4 | 0.00 | 0.00 | 0.00 | 69 | 975.7 |
| 20260509203628 | 88 | 66 | 0.0 | 10.4 | 0.00 | 0.00 | 0.00 | 69 | 975.4 |
| 20260509202611 | 88 | 45 | 1.7 | 10.4 | 0.00 | 0.00 | 0.00 | 68 | 975.0 |
| 20260509201038 | 88 | 334 | 0.9 | 10.4 | 0.00 | 0.00 | 0.00 | 70 | 977.0 |
| 20260509200537 | 88 | 255 | 0.9 | 10.4 | 0.00 | 0.00 | 0.00 | 69 | 977.6 |
| 20260509200036 | 88 | 114 | 1.7 | 10.4 | 0.00 | 0.00 | 0.00 | 69 | 978.0 |
| 20260509195535 | 87 | 59 | 0.9 | 10.4 | 0.00 | 0.00 | 0.00 | 70 | 978.4 |
| 20260509195034 | 87 | 81 | 0.9 | 10.4 | 0.00 | 0.00 | 0.00 | 71 | 978.1 |
| 20260509192945 | 86 | 30 | 0.9 | 10.4 | 0.00 | 0.00 | 0.00 | 73 | 979.8 |
| 20260509191928 | 86 | 352 | 0.9 | 10.4 | 0.00 | 0.00 | 0.00 | 71 | 980.6 |
| 20260509190911 | 85 | 30 | 0.9 | 10.4 | 0.00 | 0.00 | 0.00 | 72 | 981.2 |
| 20260509190410 | 86 | 35 | 3.5 | 10.4 | 0.00 | 0.00 | 0.00 | 72 | 980.8 |
| 20260509185909 | 86 | 35 | 0.9 | 10.4 | 0.00 | 0.00 | 0.00 | 71 | 980.1 |
| 20260509185408 | 86 | 24 | 1.7 | 10.4 | 0.00 | 0.00 | 0.00 | 71 | 980.7 |
| 20260509184351 | 86 | 284 | 0.0 | 10.4 | 0.00 | 0.00 | 0.00 | 71 | 981.9 |
| 20260509183334 | 86 | 231 | 1.7 | 10.4 | 0.00 | 0.00 | 0.00 | 71 | 983.8 |
| 20260509182317 | 85 | 206 | 2.6 | 10.4 | 0.00 | 0.00 | 0.00 | 73 | 984.8 |
| 20260509181816 | 86 | 193 | 2.6 | 10.4 | 0.00 | 0.00 | 0.00 | 70 | 982.7 |
| 20260509181315 | 86 | 197 | 1.7 | 10.4 | 0.00 | 0.00 | 0.00 | 72 | 981.9 |
| 20260509180814 | 86 | 192 | 0.9 | 10.4 | 0.00 | 0.00 | 0.00 | 73 | 982.0 |
| 20260509180313 | 86 | 158 | 2.6 | 10.4 | 0.00 | 0.00 | 0.00 | 72 | 982.0 |
| 20260509175812 | 85 | 233 | 0.0 | 10.4 | 0.00 | 0.00 | 0.00 | 74 | 983.5 |
| 20260509175311 | 85 | 157 | 2.6 | 10.4 | 0.00 | 0.00 | 0.00 | 75 | 983.5 |
| 20260509174810 | 85 | 161 | 0.9 | 10.4 | 0.00 | 0.00 | 0.00 | 75 | 983.4 |
| 20260509174309 | 84 | 249 | 0.9 | 10.4 | 0.00 | 0.00 | 0.00 | 76 | 985.1 |
| 20260509173808 | 84 | 215 | 0.9 | 10.4 | 0.00 | 0.00 | 0.00 | 76 | 985.0 |
| 20260509173307 | 84 | 269 | 1.7 | 10.4 | 0.00 | 0.00 | 0.00 | 76 | 985.5 |
| 20260509172250 | 84 | 192 | 1.7 | 10.4 | 0.00 | 0.00 | 0.00 | 77 | 987.6 |
| 20260509171749 | 83 | 175 | 0.9 | 10.4 | 0.00 | 0.00 | 0.00 | 78 | 987.7 |
| 20260509171248 | 83 | 182 | 1.7 | 10.4 | 0.00 | 0.00 | 0.00 | 78 | 987.4 |
| 20260509170747 | 83 | 228 | 1.7 | 10.4 | 0.00 | 0.00 | 0.00 | 78 | 987.4 |
| 20260509170246 | 83 | 197 | 1.7 | 10.4 | 0.00 | 0.00 | 0.00 | 79 | 987.5 |
| 20260509165745 | 83 | 195 | 3.5 | 10.4 | 0.00 | 0.00 | 0.00 | 78 | 986.7 |
| 20260509165244 | 83 | 150 | 1.7 | 10.4 | 0.00 | 0.00 | 0.00 | 79 | 986.8 |
| 20260509164228 | 83 | 220 | 1.7 | 10.4 | 0.00 | 0.00 | 0.00 | 79 | 987.2 |
| 20260509163726 | 83 | 220 | 2.6 | 10.4 | 0.00 | 0.00 | 0.00 | 79 | 987.8 |
| 20260509162710 | 82 | 228 | 2.6 | 10.4 | 0.00 | 0.00 | 0.00 | 82 | 990.5 |
| 20260509162208 | 82 | 142 | 4.3 | 10.4 | 0.00 | 0.00 | 0.00 | 83 | 990.2 |
| 20260509161707 | 81 | 159 | 3.5 | 10.4 | 0.00 | 0.00 | 0.00 | 84 | 990.4 |
| 20260509161206 | 81 | 184 | 4.3 | 10.4 | 0.00 | 0.00 | 0.00 | 84 | 990.3 |
| 20260509160705 | 81 | 179 | 4.3 | 9.6 | 0.00 | 0.00 | 0.00 | 84 | 989.9 |
| 20260509160204 | 80 | 175 | 2.6 | 9.6 | 0.00 | 0.00 | 0.00 | 85 | 989.7 |
| 20260509155704 | 80 | 166 | 2.6 | 9.6 | 0.00 | 0.00 | 0.00 | 87 | 989.7 |
| 20260509154647 | 79 | 216 | 3.5 | 9.6 | 0.00 | 0.00 | 0.00 | 87 | 990.3 |
| 20260509154146 | 79 | 210 | 1.7 | 9.6 | 0.00 | 0.00 | 0.00 | 90 | 989.0 |
| 20260509153129 | 78 | 180 | 3.5 | 9.6 | 0.00 | 0.00 | 0.00 | 94 | 987.9 |
| 20260509152628 | 78 | 201 | 0.9 | 9.6 | 0.00 | 0.00 | 0.00 | 96 | 988.0 |
| 20260509152127 | 77 | 201 | 0.9 | 9.6 | 0.00 | 0.00 | 0.00 | 97 | 988.2 |
| 20260509151626 | 77 | 234 | 0.0 | 9.6 | 0.00 | 0.00 | 0.00 | 98 | 989.3 |
| 20260509151125 | 76 | 179 | 1.7 | 9.6 | 0.00 | 0.00 | 0.00 | 98 | 988.9 |
| 20260509150624 | 76 | 158 | 0.9 | 9.6 | 0.00 | 0.00 | 0.00 | 100 | 988.0 |
| 20260509150123 | 76 | 158 | 0.0 | 9.6 | 0.00 | 0.00 | 0.00 | 99 | 988.6 |
| 20260509145622 | 76 | 158 | 0.9 | 9.6 | 0.00 | 0.00 | 0.00 | 100 | 988.7 |
| 20260509145121 | 76 | 158 | 0.0 | 9.6 | 0.00 | 0.00 | 0.00 | 100 | 989.2 |
| 20260509144620 | 75 | 159 | 0.9 | 9.6 | 0.00 | 0.00 | 0.00 | 100 | 989.6 |
| 20260509144119 | 75 | 158 | 0.9 | 9.6 | 0.00 | 0.00 | 0.00 | 100 | 990.8 |
| 20260509143618 | 75 | 158 | 0.9 | 9.6 | 0.00 | 0.00 | 0.00 | 100 | 991.0 |
| 20260509143117 | 75 | 157 | 0.0 | 9.6 | 0.00 | 0.00 | 0.00 | 100 | 991.6 |
| 20260509142616 | 75 | 157 | 1.7 | 9.6 | 0.00 | 0.00 | 0.00 | 100 | 991.6 |
| 20260509142115 | 75 | 159 | 0.0 | 9.6 | 0.00 | 0.00 | 0.00 | 100 | 992.1 |
| 20260509141614 | 74 | 159 | 0.0 | 9.6 | 0.00 | 0.00 | 0.00 | 100 | 992.1 |
| 20260509141113 | 74 | 159 | 0.0 | 9.6 | 0.00 | 0.00 | 0.00 | 100 | 992.4 |
| 20260509135540 | 74 | 158 | 0.9 | 9.6 | 0.00 | 0.00 | 0.00 | 100 | 991.9 |
| 20260509135039 | 74 | 158 | 0.9 | 9.6 | 0.00 | 0.00 | 0.00 | 100 | 991.0 |
| 20260509134538 | 74 | 158 | 0.0 | 9.6 | 0.00 | 0.00 | 0.00 | 100 | 990.8 |
| 20260509134037 | 74 | 158 | 0.0 | 9.6 | 0.00 | 0.00 | 0.00 | 100 | 991.0 |
| 20260509133536 | 74 | 158 | 0.0 | 9.6 | 0.00 | 0.00 | 0.00 | 100 | 990.8 |
| 20260509133035 | 74 | 158 | 0.0 | 9.6 | 0.00 | 0.00 | 0.00 | 100 | 992.0 |
| 20260509132534 | 74 | 158 | 0.0 | 9.6 | 0.00 | 0.00 | 0.00 | 100 | 992.1 |
| 20260509132033 | 74 | 158 | 0.0 | 9.6 | 0.00 | 0.00 | 0.00 | 100 | 992.8 |
| 20260509131532 | 74 | 158 | 0.0 | 9.6 | 0.00 | 0.00 | 0.00 | 100 | 993.0 |
| 20260509131031 | 74 | 158 | 0.0 | 9.6 | 0.00 | 0.00 | 0.00 | 100 | 992.8 |
| 20260509130530 | 74 | 158 | 0.0 | 9.6 | 0.00 | 0.00 | 0.00 | 100 | 991.9 |
| 20260509130029 | 74 | 158 | 0.0 | 9.6 | 0.00 | 0.00 | 0.00 | 100 | 992.3 |
| 20260509123940 | 74 | 159 | 0.0 | 9.6 | 0.00 | 0.00 | 0.00 | 100 | 995.0 |
| 20260509123439 | 74 | 159 | 0.0 | 9.6 | 0.00 | 0.00 | 0.00 | 100 | 995.1 |
| 20260509122938 | 74 | 159 | 1.7 | 9.6 | 0.00 | 0.00 | 0.00 | 100 | 994.9 |
| 20260509121921 | 74 | 159 | 0.9 | 9.6 | 0.00 | 0.00 | 0.00 | 100 | 994.3 |
| 20260509121421 | 74 | 318 | 1.7 | 9.6 | 0.00 | 0.00 | 0.00 | 100 | 994.1 |
| 20260509120403 | 74 | 321 | 0.0 | 9.6 | 0.00 | 0.00 | 0.00 | 100 | 993.2 |
| 20260509115902 | 74 | 321 | 0.0 | 9.6 | 0.00 | 0.00 | 0.00 | 100 | 993.2 |
| 20260509115402 | 74 | 321 | 0.9 | 9.6 | 0.00 | 0.00 | 0.00 | 100 | 993.1 |
| 20260509114900 | 74 | 128 | 0.9 | 9.6 | 0.00 | 0.00 | 0.00 | 100 | 992.9 |
| 20260509113843 | 74 | 128 | 0.9 | 9.6 | 0.00 | 0.00 | 0.00 | 100 | 992.9 |
| 20260509113342 | 74 | 128 | 0.0 | 9.6 | 0.00 | 0.00 | 0.00 | 100 | 992.1 |
| 20260509112841 | 74 | 128 | 0.0 | 9.6 | 0.00 | 0.00 | 0.00 | 99 | 992.6 |
| 20260509112340 | 74 | 128 | 0.0 | 9.6 | 0.00 | 0.00 | 0.00 | 99 | 992.3 |
| 20260509111839 | 74 | 128 | 0.0 | 9.6 | 0.00 | 0.00 | 0.00 | 99 | 993.0 |
| 20260509111338 | 74 | 128 | 0.0 | 9.6 | 0.00 | 0.00 | 0.00 | 99 | 993.6 |
| 20260509110837 | 74 | 129 | 0.0 | 9.6 | 0.00 | 0.00 | 0.00 | 99 | 993.5 |
| 20260509110336 | 74 | 129 | 0.0 | 9.6 | 0.00 | 0.00 | 0.00 | 99 | 994.1 |
| 20260509105836 | 74 | 129 | 0.9 | 9.6 | 0.00 | 0.00 | 0.00 | 99 | 993.8 |
| 20260509105334 | 74 | 129 | 0.9 | 9.6 | 0.00 | 0.00 | 0.00 | 99 | 994.1 |
| 20260509104318 | 74 | 129 | 0.0 | 9.6 | 0.00 | 0.00 | 0.00 | 99 | 994.1 |
| 20260509103817 | 74 | 129 | 0.0 | 9.6 | 0.00 | 0.00 | 0.00 | 99 | 993.7 |
| 20260509103316 | 74 | 128 | 0.0 | 9.6 | 0.00 | 0.00 | 0.00 | 99 | 993.6 |
| 20260509102815 | 74 | 128 | 0.0 | 9.6 | 0.00 | 0.00 | 0.00 | 99 | 993.7 |
| 20260509102314 | 74 | 128 | 0.9 | 9.6 | 0.00 | 0.00 | 0.00 | 99 | 993.5 |
| 20260509101812 | 74 | 128 | 0.0 | 9.6 | 0.00 | 0.00 | 0.00 | 99 | 993.1 |
| 20260509100239 | 74 | 128 | 0.9 | 9.6 | 0.00 | 0.00 | 0.00 | 99 | 994.1 |
| 20260509095738 | 74 | 128 | 0.0 | 9.6 | 0.00 | 0.00 | 0.00 | 99 | 994.1 |
| 20260509095238 | 73 | 128 | 0.9 | 9.6 | 0.00 | 0.00 | 0.00 | 99 | 993.5 |
| 20260509094737 | 74 | 128 | 0.0 | 9.6 | 0.00 | 0.00 | 0.00 | 99 | 994.1 |
| 20260509094236 | 74 | 128 | 0.0 | 9.6 | 0.00 | 0.00 | 0.00 | 99 | 994.3 |
| 20260509093735 | 73 | 129 | 0.9 | 9.6 | 0.00 | 0.00 | 0.00 | 99 | 994.3 |
| 20260509093234 | 73 | 128 | 0.9 | 9.6 | 0.00 | 0.00 | 0.00 | 99 | 994.1 |
| 20260509091701 | 73 | 128 | 0.9 | 9.6 | 0.00 | 0.00 | 0.00 | 99 | 994.0 |
| 20260509091200 | 73 | 128 | 0.9 | 9.6 | 0.00 | 0.00 | 0.00 | 99 | 993.7 |
| 20260509090659 | 73 | 128 | 0.0 | 9.6 | 0.00 | 0.00 | 0.00 | 99 | 994.5 |
| 20260509085652 | 74 | 128 | 0.9 | 9.6 | 0.00 | 0.00 | 0.00 | 99 | 993.6 |
| 20260509085151 | 74 | 128 | 0.0 | 9.6 | 0.00 | 0.00 | 0.00 | 99 | 993.3 |
| 20260509084650 | 74 | 128 | 0.9 | 9.6 | 0.00 | 0.00 | 0.00 | 99 | 992.4 |
| 20260509084149 | 74 | 128 | 0.0 | 9.6 | 0.00 | 0.00 | 0.00 | 99 | 992.5 |
| 20260509083648 | 74 | 128 | 0.0 | 9.6 | 0.00 | 0.00 | 0.00 | 99 | 992.8 |
| 20260509082631 | 74 | 128 | 0.0 | 9.6 | 0.00 | 0.00 | 0.00 | 99 | 994.3 |
| 20260509082130 | 74 | 128 | 0.0 | 9.6 | 0.00 | 0.00 | 0.00 | 99 | 994.6 |
| 20260509081629 | 74 | 128 | 0.0 | 9.6 | 0.00 | 0.00 | 0.00 | 99 | 995.2 |
| 20260509081128 | 74 | 128 | 0.0 | 9.6 | 0.00 | 0.00 | 0.00 | 99 | 995.9 |
| 20260509080627 | 74 | 128 | 0.0 | 9.6 | 0.00 | 0.00 | 0.00 | 99 | 995.8 |
| 20260509080126 | 74 | 128 | 1.7 | 9.6 | 0.00 | 0.00 | 0.00 | 98 | 995.7 |
| 20260509075625 | 74 | 128 | 0.9 | 9.6 | 0.00 | 0.00 | 0.00 | 98 | 995.8 |
| 20260509074608 | 73 | 128 | 0.9 | 9.6 | 0.00 | 0.00 | 0.00 | 98 | 995.7 |
| 20260509074107 | 73 | 128 | 0.9 | 9.6 | 0.00 | 0.00 | 0.00 | 98 | 995.6 |
| 20260509072534 | 73 | 129 | 0.0 | 9.6 | 0.00 | 0.00 | 0.00 | 98 | 996.6 |
| 20260509072033 | 73 | 129 | 0.9 | 9.6 | 0.00 | 0.00 | 0.00 | 98 | 997.1 |
| 20260509071532 | 73 | 129 | 0.9 | 9.6 | 0.00 | 0.00 | 0.00 | 98 | 997.2 |
| 20260509071031 | 73 | 129 | 1.7 | 9.6 | 0.00 | 0.00 | 0.00 | 98 | 997.4 |
| 20260509070530 | 73 | 129 | 1.7 | 9.6 | 0.00 | 0.00 | 0.00 | 98 | 996.8 |
| 20260509070029 | 73 | 129 | 3.5 | 9.6 | 0.00 | 0.00 | 0.00 | 98 | 996.6 |
| 20260509065528 | 73 | 129 | 3.5 | 9.6 | 0.00 | 0.00 | 0.00 | 98 | 996.6 |
| 20260509064511 | 73 | 129 | 0.9 | 9.6 | 0.00 | 0.00 | 0.00 | 97 | 997.1 |
| 20260509064010 | 73 | 130 | 1.7 | 9.6 | 0.00 | 0.00 | 0.00 | 97 | 997.4 |
| 20260509062953 | 73 | 130 | 2.6 | 9.6 | 0.00 | 0.00 | 0.00 | 97 | 996.7 |
| 20260509062452 | 73 | 130 | 2.6 | 9.6 | 0.00 | 0.00 | 0.00 | 97 | 996.4 |
| 20260509061951 | 73 | 130 | 4.3 | 9.6 | 0.00 | 0.00 | 0.00 | 97 | 996.5 |
| 20260509061450 | 73 | 130 | 6.1 | 9.6 | 0.00 | 0.00 | 0.00 | 97 | 996.4 |
| 20260509060949 | 73 | 130 | 5.2 | 9.6 | 0.00 | 0.00 | 0.00 | 96 | 996.7 |
| 20260509060448 | 73 | 130 | 5.2 | 9.6 | 0.00 | 0.00 | 0.00 | 96 | 996.2 |
| 20260509055947 | 73 | 130 | 5.2 | 9.6 | 0.00 | 0.00 | 0.00 | 96 | 996.2 |
| 20260509055446 | 73 | 130 | 4.3 | 9.6 | 0.00 | 0.00 | 0.00 | 96 | 996.5 |
| 20260509054945 | 73 | 130 | 5.2 | 9.6 | 0.00 | 0.00 | 0.00 | 96 | 996.5 |
| 20260509054444 | 73 | 130 | 4.3 | 9.6 | 0.00 | 0.00 | 0.00 | 95 | 996.7 |
| 20260509053943 | 73 | 130 | 5.2 | 9.6 | 0.00 | 0.00 | 0.00 | 95 | 997.4 |
| 20260509053442 | 73 | 130 | 5.2 | 9.6 | 0.00 | 0.00 | 0.00 | 95 | 996.8 |
| 20260509052425 | 73 | 130 | 5.2 | 9.6 | 0.00 | 0.00 | 0.00 | 95 | 996.4 |
| 20260509050852 | 73 | 130 | 4.3 | 9.6 | 0.00 | 0.00 | 0.00 | 95 | 996.5 |
| 20260509050351 | 73 | 130 | 4.3 | 9.6 | 0.00 | 0.00 | 0.00 | 95 | 996.0 |
| 20260509045850 | 73 | 130 | 5.2 | 9.6 | 0.00 | 0.00 | 0.03 | 95 | 996.6 |
| 20260509045349 | 73 | 130 | 5.2 | 9.6 | 0.00 | 0.00 | 0.03 | 95 | 996.1 |
| 20260509044849 | 73 | 130 | 4.3 | 9.6 | 0.00 | 0.00 | 0.03 | 95 | 996.3 |
| 20260509044348 | 73 | 130 | 4.3 | 9.6 | 0.00 | 0.00 | 0.03 | 95 | 996.0 |
| 20260509043847 | 73 | 130 | 4.3 | 9.6 | 0.00 | 0.00 | 0.03 | 94 | 995.5 |
| 20260509043346 | 74 | 130 | 4.3 | 9.6 | 0.00 | 0.00 | 0.03 | 94 | 995.1 |
| 20260509042845 | 74 | 130 | 3.5 | 9.6 | 0.00 | 0.00 | 0.03 | 94 | 995.3 |
| 20260509042344 | 74 | 130 | 2.6 | 9.6 | 0.00 | 0.00 | 0.03 | 94 | 996.0 |
| 20260509041843 | 74 | 130 | 1.7 | 9.6 | 0.00 | 0.00 | 0.03 | 94 | 995.8 |
| 20260509041341 | 74 | 130 | 4.3 | 9.6 | 0.00 | 0.00 | 0.03 | 94 | 995.5 |
| 20260509040840 | 74 | 130 | 3.5 | 9.6 | 0.00 | 0.00 | 0.03 | 94 | 995.8 |
| 20260509040339 | 74 | 130 | 3.5 | 9.6 | 0.00 | 0.00 | 0.03 | 94 | 995.3 |
| 20260509035322 | 74 | 130 | 1.7 | 9.6 | 0.00 | 0.00 | 0.03 | 94 | 994.7 |
| 20260509034306 | 74 | 130 | 0.9 | 9.6 | 0.00 | 0.00 | 0.03 | 94 | 994.8 |
| 20260509033805 | 74 | 130 | 0.0 | 9.6 | 0.00 | 0.00 | 0.03 | 94 | 995.1 |
| 20260509033304 | 74 | 130 | 0.9 | 9.6 | 0.00 | 0.00 | 0.03 | 94 | 995.3 |
| 20260509032803 | 74 | 130 | 1.7 | 9.6 | 0.00 | 0.00 | 0.03 | 94 | 995.0 |
| 20260509032306 | 74 | 130 | 3.5 | 9.6 | 0.00 | 0.00 | 0.03 | 94 | 995.2 |
| 20260509031801 | 74 | 130 | 0.9 | 9.6 | 0.00 | 0.00 | 0.03 | 94 | 995.4 |
| 20260509031300 | 74 | 130 | 1.7 | 9.6 | 0.00 | 0.00 | 0.03 | 94 | 995.4 |
| 20260509030243 | 74 | 130 | 4.3 | 9.6 | 0.00 | 0.00 | 0.03 | 93 | 995.4 |
| 20260509025742 | 74 | 130 | 6.1 | 9.6 | 0.00 | 0.00 | 0.03 | 93 | 994.8 |
| 20260509025238 | 74 | 130 | 1.7 | 9.6 | 0.00 | 0.00 | 0.03 | 93 | 994.8 |
| 20260509024737 | 74 | 130 | 0.0 | 9.6 | 0.00 | 0.00 | 0.03 | 93 | 995.2 |
| 20260509024236 | 74 | 131 | 0.9 | 9.6 | 0.00 | 0.00 | 0.03 | 93 | 994.9 |
| 20260509023735 | 74 | 131 | 3.5 | 9.6 | 0.00 | 0.00 | 0.03 | 93 | 994.6 |
| 20260509023234 | 74 | 134 | 1.7 | 9.6 | 0.00 | 0.00 | 0.03 | 92 | 994.5 |
| 20260509022733 | 75 | 134 | 2.6 | 9.6 | 0.00 | 0.00 | 0.03 | 92 | 994.2 |
| 20260509022232 | 75 | 134 | 1.7 | 9.6 | 0.00 | 0.00 | 0.03 | 92 | 993.9 |
| 20260509021731 | 75 | 134 | 1.7 | 9.6 | 0.00 | 0.00 | 0.03 | 92 | 993.5 |
| 20260509021230 | 75 | 133 | 1.7 | 9.6 | 0.00 | 0.00 | 0.03 | 91 | 993.8 |
| 20260509020729 | 75 | 133 | 2.6 | 9.6 | 0.00 | 0.00 | 0.03 | 91 | 993.4 |
| 20260509015712 | 75 | 134 | 0.9 | 9.6 | 0.00 | 0.00 | 0.03 | 91 | 993.4 |
| 20260509014655 | 75 | 133 | 1.7 | 9.6 | 0.00 | 0.00 | 0.03 | 91 | 994.4 |
| 20260509014154 | 75 | 133 | 2.6 | 9.6 | 0.00 | 0.00 | 0.03 | 91 | 994.2 |
| 20260509012621 | 76 | 132 | 2.6 | 9.6 | 0.00 | 0.00 | 0.03 | 90 | 993.3 |
| 20260509011604 | 76 | 126 | 0.9 | 9.6 | 0.00 | 0.00 | 0.03 | 89 | 992.7 |
| 20260509011103 | 76 | 125 | 0.0 | 9.6 | 0.00 | 0.00 | 0.03 | 89 | 993.1 |
| 20260509010602 | 76 | 125 | 0.9 | 9.6 | 0.00 | 0.00 | 0.03 | 88 | 993.3 |
| 20260509010101 | 76 | 126 | 1.7 | 9.6 | 0.00 | 0.00 | 0.03 | 88 | 993.1 |
| 20260509005600 | 77 | 124 | 1.7 | 9.6 | 0.00 | 0.00 | 0.03 | 88 | 992.9 |
| 20260509005059 | 77 | 120 | 1.7 | 9.6 | 0.00 | 0.00 | 0.03 | 88 | 992.7 |
| 20260509004558 | 77 | 121 | 2.6 | 9.6 | 0.00 | 0.00 | 0.03 | 87 | 992.7 |
| 20260509004057 | 77 | 125 | 1.7 | 9.6 | 0.00 | 0.00 | 0.03 | 87 | 991.9 |
| 20260509003556 | 77 | 124 | 3.5 | 9.6 | 0.00 | 0.00 | 0.03 | 86 | 991.3 |
| 20260509003055 | 77 | 125 | 1.7 | 9.6 | 0.00 | 0.00 | 0.03 | 86 | 990.6 |
| 20260509002554 | 78 | 125 | 1.7 | 9.6 | 0.00 | 0.00 | 0.03 | 86 | 989.7 |
| 20260509000505 | 78 | 124 | 0.9 | 9.6 | 0.00 | 0.00 | 0.03 | 84 | 989.6 |
| 20260509000004 | 78 | 125 | 0.9 | 9.6 | 0.00 | 0.00 | 0.03 | 84 | 989.8 |
| 20260508235503 | 78 | 119 | 1.7 | 9.6 | 0.00 | 0.00 | 0.03 | 84 | 989.7 |
| 20260508233930 | 78 | 120 | 2.6 | 9.6 | 0.00 | 0.00 | 0.03 | 84 | 989.2 |
| 20260508233429 | 78 | 108 | 0.9 | 9.6 | 0.00 | 0.00 | 0.03 | 83 | 988.6 |
| 20260508232928 | 79 | 58 | 0.9 | 9.6 | 0.00 | 0.00 | 0.03 | 83 | 988.5 |
| 20260508232427 | 79 | 107 | 0.9 | 9.6 | 0.00 | 0.00 | 0.03 | 83 | 988.3 |
| 20260508231410 | 79 | 77 | 0.9 | 9.6 | 0.00 | 0.00 | 0.03 | 83 | 987.8 |
| 20260508230909 | 79 | 67 | 0.0 | 9.6 | 0.00 | 0.00 | 0.03 | 83 | 987.8 |
| 20260508225852 | 79 | 66 | 2.6 | 9.6 | 0.00 | 0.00 | 0.03 | 82 | 986.9 |
| 20260508225351 | 80 | 131 | 1.7 | 9.6 | 0.00 | 0.00 | 0.03 | 81 | 986.8 |
| 20260508224850 | 80 | 109 | 1.7 | 9.6 | 0.00 | 0.00 | 0.03 | 81 | 985.8 |
| 20260508224349 | 80 | 72 | 0.9 | 9.6 | 0.00 | 0.00 | 0.03 | 81 | 986.0 |
| 20260508223849 | 80 | 112 | 2.6 | 9.6 | 0.00 | 0.00 | 0.03 | 81 | 986.5 |
| 20260508223347 | 79 | 118 | 1.7 | 9.6 | 0.00 | 0.00 | 0.03 | 82 | 986.5 |
| 20260508222846 | 79 | 62 | 0.9 | 9.6 | 0.00 | 0.00 | 0.03 | 83 | 986.4 |
| 20260508222345 | 79 | 62 | 0.9 | 9.6 | 0.00 | 0.00 | 0.03 | 83 | 986.8 |
| 20260508221845 | 79 | 126 | 0.9 | 9.6 | 0.00 | 0.00 | 0.03 | 83 | 986.7 |
| 20260508221343 | 78 | 126 | 0.9 | 9.6 | 0.00 | 0.00 | 0.03 | 83 | 987.7 |
| 20260508220327 | 78 | 57 | 0.0 | 9.6 | 0.00 | 0.00 | 0.03 | 84 | 987.2 |
| 20260508215826 | 78 | 0 | 0.9 | 9.6 | 0.00 | 0.00 | 0.03 | 85 | 987.2 |
| 20260508214809 | 78 | 68 | 0.9 | 9.6 | 0.00 | 0.00 | 0.03 | 84 | 986.9 |
| 20260508213751 | 77 | 67 | 0.0 | 9.6 | 0.00 | 0.00 | 0.03 | 85 | 989.1 |
| 20260508213250 | 77 | 67 | 0.9 | 9.6 | 0.00 | 0.00 | 0.03 | 85 | 989.4 |